Regional Weather Roundup
Issued by NWS Boston, MA

Home | Current Version | Previous Version | Text Only | Print | Product List | Glossary On
Versions: 1 2 3 4 5 6 7 8 9 10 11 12 13 14 15 16 17 18 19 20 21 22 23 24 25 26 27 28 29 30 31 32 33 34 35 36 37 38 39 40 41 42 43 44 45 46 47 48 49 50
311
ASUS41 KBOX 291110
RWRBOX

REGIONAL WEATHER ROUNDUP
NATIONAL WEATHER SERVICE TAUNTON MA
700 AM EDT SAT APR 29 2017

NOTE:  "FAIR" INDICATES FEW OR NO CLOUDS BELOW 12,000 FEET WITH NO
SIGNIFICANT WEATHER AND/OR OBSTRUCTIONS TO VISIBILITY.

MAZALL-291200-
EASTERN MASSACHUSETTS

CITY           SKY/WX    TMP DP  RH WIND       PRES   REMARKS
BOSTON         CLOUDY    63  55  75 S7        29.97F
BEVERLY        CLOUDY    64  57  78 W3        29.96S
LAWRENCE       CLOUDY    65  57  75 SW5       29.98S
BEDFORD        CLOUDY    62  55  77 CALM      29.96S
BLUE HILL        N/A     65  50  58 SW12      29.97S
NORWOOD        CLOUDY    62  56  80 CALM      29.96S
MARSHFIELD     CLOUDY    63  55  77 SW5       29.97R
PLYMOUTH       PTSUNNY   56  53  90 MISG      29.99F
TAUNTON        PTSUNNY   59  54  83 E3        29.97F
NEW BEDFORD    CLOUDY    59  53  80 S7        29.99R
$$

MAZALL-291200-
CAPE COD AND THE ISLANDS

CITY           SKY/WX    TMP DP  RH WIND       PRES   REMARKS
FALMOUTH       CLOUDY    55  54  94 MISG      30.01R
HYANNIS        MOSUNNY   57  53  86 S6        29.98S
CHATHAM        MOSUNNY   55  54  96 SW5       29.98F
PROVINCETOWN   CLOUDY    56  52  86 SW6       29.99F
NANTUCKET      FOG       50  49  96 SW7       30.02S VSB 1/4
MARTHAS VNYRD  MOSUNNY   54  52  93 VRB5      30.01S FOG
$$

MAZALL-291200-
CENTRAL AND WESTERN MASSACHUSETTS

CITY           SKY/WX    TMP DP  RH WIND       PRES   REMARKS
WORCESTER      PTSUNNY   62  49  62 W7        29.99S
FITCHBURG      CLOUDY    63  56  78 CALM      29.98R
ORANGE         CLOUDY    56  54  93 CALM      29.98R
SPRINGFIELD    PTSUNNY   60  57  89 NE5       29.94F
WESTFIELD      PTSUNNY   60  57  89 CALM      29.95F
NORTH ADAMS    CLOUDY    56  51  84 S3        29.98R
PITTSFIELD     CLOUDY    55  52  89 CALM      29.98R
$$

RIZALL-291200-
RHODE ISLAND

CITY           SKY/WX    TMP DP  RH WIND       PRES   REMARKS
PROVIDENCE     CLOUDY    61  53  75 S7        29.97F
NEWPORT        PTSUNNY   55  53  93 S6        30.00R
BLOCK ISLAND   LGT RAIN  54  54 100 W12       30.02  FOG
SMITHFIELD     CLOUDY    62  49  62 CALM      29.98S
WESTERLY       CLOUDY    56  54  93 CALM      30.01R FOG
$$

CTZALL-291200-
CONNECTICUT

CITY           SKY/WX    TMP DP  RH WIND       PRES   REMARKS
BRADLEY INTL   CLOUDY    62  55  77 CALM      29.96S
HARTFORD       CLOUDY    64  52  64 S6        29.96S
BRIDGEPORT     CLOUDY    62  56  80 VRB3      30.00R
DANBURY        CLOUDY    58  57  97 CALM      29.99F
GROTON         CLOUDY    54  51  90 S8        30.00R
NEW HAVEN      CLOUDY    57  53  86 S6        30.01R
CHESTER        FAIR      64  54  68 S6        30.00R
MERIDEN        CLOUDY    61  55  81 SE6       29.98S
WILLIMANTIC    CLOUDY    61  57  87 CALM      29.99R
OXFORD         CLOUDY    63  46  55 CALM      29.99S
$$

MEZ002-015-021-024-NHZ003-005-008-011-012-014-VTZ005-008-291200-
NORTHERN NEW ENGLAND

CITY           SKY/WX    TMP DP  RH WIND       PRES   REMARKS
PORTLAND ME    CLOUDY    55  48  77 W3        29.94S
BANGOR ME      CLOUDY    48  48 100 SW5       29.92R
CONCORD NH     CLOUDY    57  49  74 CALM      29.96S
MANCHESTER NH  CLOUDY    60  47  61 CALM      29.95S
NASHUA NH      CLOUDY    58  53  84 CALM      29.97R
PORTSMOUTH NH  CLOUDY    58  47  67 W3        29.94S
JAFFREY NH     CLOUDY    56  55  97 S3        30.00R
KEENE NH       CLOUDY    56  52  86 CALM      29.99R
BURLINGTON VT  CLOUDY    62  43  49 SW6       29.92S
MT. WASHINGTON CLOUDY    43  34  70 W52         N/A  WCI  29
$$

NYZ052-076-291200-
EASTERN NEW YORK

CITY           SKY/WX    TMP DP  RH WIND       PRES   REMARKS
ALBANY         CLOUDY    63  53  70 W5        29.97R
NEW YORK CITY  CLOUDY    68  64  87 E3        29.97R
$$

ANZALL-291200-
MARINE OBSERVATIONS

STATION/POSITION TIME  TEMP    WIND        PRES    VSBY  WAVE
                       AIR SEA DIR/SP/G                  HT/PER
                 (UTC) (F)     (DEG/KT/KT) (MB)    (MI)  (FT/S)
BOSTON BUOY      0950   54 49  180/  6/  8 1014.2          2/ 8
BUZZARDS BAY     1000   51     200/ 13/ 15 1015.2F
NANTUCKET SOUND  1050      47              1015.7F         1/ 9
MASS BAY-STELLWA 1004   52 47  210/  6/  8 1014.2F         2/ 8
ISLE OF SHOALS   1000   64     220/ 10/ 10 1013.8F
S OF BLOCK IS    1055      48                N/A           4/ 8
$$

......................KEY.........................
  SKY/WX - SKY CONDITION/PRESENT WEATHER
  TMP    - TEMPERATURE IN FAHRENHEIT
  DWPT   - DEWPOINT IN FAHRENHEIT
  RH     - RELATIVE HUMIDITY IN PERCENT
  WIND   - DIRECTION AND SPEED IN MPH
  PRES   - MEAN SEA LEVEL PRESSURE IN INCHES OF HG
  WCI    - WIND CHILL INDEX
  VSB    - VISIBILITY IN MILES
  HX     - HEAT INDEX
  TC     - TEMPERATURE IN CELSIUS
  VRB    - VARIABLE WIND DIRECTION
  N/A    - NOT AVAILABLE




USA.gov is the U.S. government's official web portal to all federal, state and local government web resources and services.